CAPE
0 0 0 0 0 0 0 0 0 0 0 0 0 4 10 1 2 0 0 0 0 0
0 0 0 0 0 0 0 0 0 0 0 0 0 0 0 0 0 1 0 0 0 0
0 0 0 0 0 0 0 0 0 0 0 0 0 0 0 0 0 0 0 0 0 0
0 0 0 0 0 0 0 0 0 0 0 0 0 0 0 0 0 0 0 0 0 0
0 0 0 0 0 0 0 0 0 0 0 0 0 0 0 0 0 0 0 0 0 0
0 0 0 0 0 0 0 0 0 0 0 0 0 0 0 0 0 0 0 0 0 0
0 0 0 0 0 0 0 0 0 0 0 0 0 0 0 0 0 0 0 0 0 0
0 0 0 0 0 0 0 0 0 0 0 0 0 0 0 0 0 0 0 0 0 0
0 0 0 0 0 0 0 0 0 0 0 0 0 0 0 0 0 0 0 0 0 0
0 0 0 0 0 0 0 0 0 0 0 0 0 0 0 0 0 0 0 0 0 0
0 0 0 0 0 0 0 0 0 0 0 0 0 0 0 0 0 0 0 0 0 0
0 0 0 0 0 0 0 0 0 0 0 0 0 0 0 0 0 0 0 0 0 0
0 0 0 0 0 0 0 0 0 0 0 0 0 0 0 0 0 0 0 0 0 0
0 0 0 0 0 0 0 0 0 0 0 0 0 0 0 0 0 0 0 0 0 0
CIN
0 0 0 0 0 0 0 0 0 0 0 0 0 -8 -8 -17 -7 0 0 0 0 0
0 0 0 0 0 0 0 0 0 0 0 0 0 0 0 0 0 -14 0 0 0 0
0 0 0 0 0 0 0 0 0 0 0 0 0 0 0 0 0 0 0 0 0 0
0 0 0 0 0 0 0 0 0 0 0 0 0 0 0 0 0 0 0 0 0 0
0 0 0 0 0 0 0 0 0 0 0 0 0 0 0 0 0 0 0 0 0 0
0 0 0 0 0 0 0 0 0 0 0 0 0 0 0 0 0 0 0 0 0 0
0 0 0 0 0 0 0 0 0 0 0 0 0 0 0 0 0 0 0 0 0 0
0 0 0 0 0 0 0 0 0 0 0 0 0 0 0 0 0 0 0 0 0 0
0 0 0 0 0 0 0 0 0 0 0 0 0 0 0 0 0 0 0 0 0 0
0 0 0 0 0 0 0 0 0 0 0 0 0 0 0 0 0 0 0 0 0 0
0 0 0 0 0 0 0 0 0 0 0 0 0 0 0 0 0 0 0 0 0 0
0 0 0 0 0 0 0 0 0 0 0 0 0 0 0 0 0 0 0 0 0 0
0 0 0 0 0 0 0 0 0 0 0 0 0 0 0 0 0 0 0 0 0 0
0 0 0 0 0 0 0 0 0 0 0 0 0 0 0 0 0 0 0 0 0 0
Wind_Speed
11 8 8 7 7 5 5 5 5 6 5 4 5 6 6 5 4 4 2 5 3 5
9 9 9 8 8 5 6 7 7 7 7 6 6 6 5 3 3 6 5 5 4 5
10 9 10 7 8 8 7 8 7 7 7 7 6 7 6 5 5 6 4 4 6 5
10 9 9 8 7 8 7 9 8 8 7 7 7 7 7 7 7 7 5 5 6 7
10 10 10 8 8 9 8 8 8 9 8 7 6 7 8 8 7 7 7 6 7 6
11 12 11 10 10 11 9 8 9 9 8 8 7 7 7 8 7 7 7 7 7 6
14 14 12 11 11 11 10 9 8 8 7 7 7 8 7 8 7 7 7 7 7 6
13 13 12 12 12 10 10 8 9 8 7 7 7 7 8 8 8 7 7 7 7 7
14 13 13 12 12 10 10 9 9 9 8 8 8 12 12 10 7 8 7 6 8 6
15 14 13 13 13 12 11 10 9 9 9 9 5 16 14 13 7 8 7 7 8 6
17 15 14 14 14 13 11 11 10 10 10 9 7 15 15 11 8 7 8 8 9 6
18 16 16 15 14 12 12 10 10 10 11 10 8 14 16 11 7 7 8 8 8 10
16 16 16 14 13 11 10 11 10 11 10 10 11 14 16 12 5 7 7 7 7 11
15 15 14 12 10 11 11 11 11 11 10 9 12 12 16 17 6 7 7 7 6 5
Wind_Direction
141 144 144 158 148 145 156 142 146 127 137 132 114 134 133 150 159 167 131 114 44 90
142 144 157 172 140 149 142 132 145 147 125 126 124 122 123 131 132 113 107 100 95 102
158 161 156 147 149 141 131 138 139 135 134 139 142 139 125 114 112 114 113 134 125 111
166 160 150 142 141 132 130 141 150 141 145 145 149 143 124 129 131 134 144 130 124 123
162 150 146 154 146 133 144 157 154 145 153 152 151 143 135 145 144 135 137 135 122 136
162 155 158 159 150 146 154 164 154 152 157 156 158 144 144 133 139 146 141 140 138 133
168 163 165 159 151 157 161 161 156 155 159 151 156 148 151 140 144 137 146 140 136 149
171 166 162 158 156 161 161 160 158 154 153 150 161 165 150 147 140 146 133 125 112 79
168 169 168 161 159 159 160 164 161 163 157 164 177 157 147 141 146 143 144 150 106 126
173 175 167 162 162 165 170 165 166 166 161 176 171 151 149 149 157 149 156 152 137 164
173 174 166 170 169 171 170 172 170 169 169 175 156 157 151 161 156 156 167 151 155 163
173 172 167 173 175 174 170 171 174 176 175 175 154 167 159 160 170 163 171 160 169 151
167 174 175 174 175 173 174 174 175 182 183 179 158 176 170 172 183 170 170 171 171 168
167 179 168 171 172 176 175 176 181 183 183 187 160 180 180 186 204 175 175 181 171 155